Location: Stilling
(56.0622°N, 9.9882°E)
Time: 13:23:04
(UTC+00:00)

USA 267 - Pass Details

Date: 13 July 2020
Orbit: 1102 x 1106 km, 123.0° (Epoch: 03 August)

Event Time Altitude Azimuth Distance (km) Brightness Sun altitude
Rises 20:58:36 0° 105° (ESE) 3,918 5.7 -6.3°
Reaches altitude 10° 21:01:05 10° 106° (ESE) 2,961 5.1 -6.5°
Maximum altitude 21:07:39 87° 195° (SSW) 1,112 3.3 -7.0°
Drops below altitude 10° 21:14:14 10° 286° (WNW) 2,968 6.3 -7.4°
Sets 21:16:43 0° 287° (WNW) 3,928 7.0 -7.6°
